Location: Garbet
(42.8837°N, 1.2115°E)
Time: 05:33:00
(UTC+00:00)

Cosmos 1953 Rocket - Pass Details

Date: 16 March 2026
Orbit: 599 x 626 km, 82.5° (Epoch: 15 April)

Event Time Altitude Azimuth Distance (km) Brightness Sun altitude
Rises 19:43:44 0° 220° (SW) 2,833 7.3 -19.1°
Reaches altitude 10° 19:46:21 10° 236° (SW) 1,936 6.6 -19.6°
Maximum altitude 19:49:41 22° 288° (WNW) 1,331 6.1 -20.2°
Drops below altitude 10° 19:53:03 10° 339° (NNW) 1,953 6.6 -20.7°
Sets 19:55:42 0° 355° (N) 2,865 7.3 -21.2°
